Lapse_Rate
7.0 7.4 7.1 6.6 6.7 7.0 6.8 6.5 6.4 6.5 6.5 6.1 6.6 6.7 6.6 6.9 7.0 6.8 6.6 6.4 6.2 6.1 6.2 5.8 5.5 5.8 6.2 6.2 6.5 6.3 6.4 5.9 6.5 6.7 7.0 7.2 7.4 7.4 7.5 7.6 7.1 7.1 6.9 6.9
7.4 8.1 8.1 6.9 6.9 7.2 7.2 7.4 6.9 6.5 6.9 6.4 6.3 6.1 6.2 6.9 6.7 6.8 6.2 6.1 6.2 6.0 6.1 6.1 5.8 5.4 5.8 6.0 6.4 6.2 6.4 6.2 6.6 6.7 6.7 6.9 6.9 7.0 7.0 7.2 7.1 7.0 6.9 6.9
6.9 7.7 7.8 7.9 8.2 8.1 8.1 7.5 7.0 6.6 6.6 6.4 6.8 6.4 6.1 6.1 6.6 6.5 6.2 6.3 6.1 5.9 5.9 5.9 5.9 5.7 5.9 5.9 6.3 6.4 6.4 6.6 6.2 6.6 6.6 6.4 6.8 6.9 7.0 7.0 7.1 7.1 6.8 6.7
7.0 7.5 7.3 8.3 7.8 7.7 7.2 7.4 6.7 6.7 6.2 6.2 6.8 7.3 6.5 6.1 5.8 5.7 6.0 6.0 5.9 6.0 5.6 5.5 5.4 5.7 6.1 6.3 6.4 6.4 6.7 6.6 6.4 6.4 6.5 6.5 6.1 6.1 6.4 6.7 6.9 6.9 6.8 6.5
7.0 7.6 7.7 8.2 7.3 6.8 6.7 6.2 6.2 6.3 6.0 6.6 6.7 6.8 6.6 6.3 5.8 5.6 5.7 5.9 5.8 5.7 5.7 5.4 5.2 5.0 5.3 5.9 6.3 6.3 6.6 6.6 6.4 6.3 6.1 5.9 6.1 6.3 6.1 5.8 5.8 5.8 6.3 5.8
7.1 7.4 7.0 7.5 7.1 6.7 6.3 6.0 5.7 5.9 6.3 6.8 6.9 6.6 6.4 6.6 6.5 5.6 5.7 5.4 5.4 5.3 5.4 5.4 5.1 5.1 4.9 5.0 5.3 5.8 5.8 6.2 6.4 6.2 6.1 5.7 5.9 6.0 6.1 5.8 5.3 5.7 5.7 5.7
6.9 7.0 7.0 6.8 6.8 7.1 6.4 5.6 5.6 6.4 6.8 6.7 6.7 6.0 5.7 5.8 5.3 5.6 5.7 5.5 5.4 5.2 5.2 5.1 5.1 4.8 4.5 4.6 4.8 5.0 5.1 5.2 5.5 5.5 5.3 5.5 5.5 5.1 5.8 5.7 5.7 5.3 5.4 5.7
7.0 7.0 7.0 6.6 6.3 5.7 5.5 5.9 5.8 6.9 6.4 6.5 6.4 5.7 5.3 5.2 5.3 5.7 5.6 5.4 5.3 5.0 4.7 4.7 4.7 4.6 4.5 4.4 4.6 4.6 4.6 4.3 4.8 4.9 5.0 4.6 5.1 4.8 4.6 4.5 4.2 5.0 4.8 4.9
6.6 6.6 6.4 6.3 6.1 5.9 5.7 5.6 5.9 6.3 6.6 6.6 6.4 6.1 5.9 5.8 5.6 5.4 5.4 5.3 5.1 4.9 4.6 4.8 4.9 4.7 4.6 4.5 4.5 4.5 4.4 4.3 4.4 4.3 4.1 4.4 4.4 4.8 4.4 4.5 4.4 4.2 4.2 4.1
6.4 6.2 6.2 6.3 5.9 5.8 5.8 5.7 6.2 6.3 6.3 6.3 6.1 6.0 6.0 5.8 5.6 5.4 5.4 5.3 5.0 4.9 4.8 4.7 4.9 4.9 4.7 4.6 4.6 4.6 4.6 4.5 4.5 4.4 4.1 3.9 4.2 4.3 3.8 4.1 3.9 3.9 3.9 3.8
6.5 6.2 6.4 6.2 6.1 6.0 6.0 6.1 6.2 6.3 6.2 6.1 6.1 6.0 5.9 5.8 5.6 5.4 5.2 5.1 4.9 4.8 4.8 5.0 5.0 5.1 4.8 4.7 4.5 4.4 4.4 4.4 4.4 4.5 4.4 4.3 4.2 4.3 4.2 4.2 4.1 4.2 4.1 4.1
6.4 6.5 6.4 6.3 6.3 6.3 6.2 6.2 6.1 6.1 6.2 6.1 6.0 6.0 6.0 5.9 5.7 5.8 5.6 5.1 4.8 4.8 5.0 5.1 5.0 4.9 5.0 4.9 4.8 4.9 4.9 4.8 4.7 4.7 4.6 4.5 4.4 4.3 4.3 4.3 4.1 4.1 3.9 3.9
6.4 6.3 6.2 6.3 6.2 6.1 6.0 6.0 6.0 6.2 6.2 6.4 6.5 6.4 6.1 6.2 6.0 6.0 6.0 5.9 5.8 5.5 5.3 5.4 5.2 5.1 5.1 5.1 4.9 4.8 4.7 4.6 4.5 4.5 4.4 4.3 4.4 4.4 4.3 4.2 4.0 4.0 4.0 4.0
6.2 6.2 6.2 6.3 6.3 6.3 6.1 6.1 6.3 6.4 6.5 6.7 6.7 6.8 6.7 6.2 6.5 6.3 6.2 6.2 6.1 5.9 5.7 5.6 5.5 5.4 5.3 5.3 5.2 5.0 4.9 4.8 4.6 4.5 4.5 4.4 4.3 4.2 4.2 4.1 4.0 3.9 3.9 4.0
6.2 6.2 6.2 6.2 6.3 6.4 6.1 6.3 6.4 6.6 6.7 6.6 6.6 6.4 6.3 6.1 6.2 6.2 6.2 6.1 5.9 5.8 5.6 5.5 5.4 5.3 5.2 5.2 5.2 5.2 5.2 5.1 4.9 4.7 4.5 4.4 4.4 4.4 4.3 4.2 4.1 4.1 4.0 4.1
6.3 6.2 6.2 6.0 6.2 6.5 6.5 6.5 6.6 6.7 6.7 6.6 6.5 6.3 6.3 6.1 6.1 6.0 5.9 5.8 5.7 5.6 5.6 5.5 5.4 5.2 5.1 5.1 5.0 4.9 4.9 4.9 4.9 4.8 4.7 4.5 4.4 4.3 4.2 4.1 4.2 4.2 4.1 4.0
6.4 6.4 6.5 6.3 6.3 6.4 6.5 6.5 6.5 6.5 6.4 6.3 6.2 6.1 6.0 5.9 5.9 5.8 5.6 5.4 5.3 5.2 5.0 5.0 5.0 4.9 4.9 4.7 4.6 4.6 4.6 4.6 4.6 4.5 4.5 4.4 4.2 4.2 4.3 4.3 4.3 4.3 4.3 4.1
6.3 6.5 6.4 6.4 6.4 6.4 6.4 6.3 6.2 6.2 6.1 6.0 5.9 5.7 5.7 5.7 5.6 5.4 5.3 5.1 4.9 4.8 4.7 4.6 4.6 4.5 4.4 4.4 4.3 4.2 4.1 4.0 4.0 4.1 4.0 4.1 4.1 4.2 4.2 4.3 4.4 4.5 4.5 4.4
6.5 6.6 6.5 6.4 6.3 6.2 6.2 6.1 6.0 5.9 5.8 5.7 5.7 5.6 5.5 5.4 5.3 5.1 5.1 5.0 5.0 4.8 4.8 4.8 4.8 4.7 4.7 4.5 4.4 4.4 4.2 4.0 3.9 3.9 3.9 4.0 4.0 4.1 4.1 4.1 4.1 4.2 4.3 4.4
6.5 6.4 6.3 6.2 6.1 6.1 6.0 5.9 5.8 5.7 5.6 5.5 5.4 5.2 5.2 5.1 5.0 4.9 4.8 4.7 4.7 4.6 4.6 4.5 4.5 4.6 4.6 4.6 4.5 4.5 4.5 4.5 4.5 4.4 4.4 4.4 4.4 4.3 4.2 4.2 4.2 4.1 3.9 4.0
6.4 6.3 6.2 6.1 6.0 5.9 5.7 5.6 5.6 5.4 5.2 5.1 5.1 5.1 5.1 5.0 4.9 4.9 4.8 4.9 4.9 4.8 4.8 4.8 4.8 4.9 4.9 4.8 4.8 4.8 4.7 4.7 4.6 4.6 4.6 4.6 4.5 4.5 4.4 4.4 4.4 4.3 4.3 4.1
6.2 6.2 6.1 5.9 5.7 5.7 5.7 5.5 5.4 5.3 5.2 5.3 5.4 5.4 5.4 5.3 5.2 5.1 5.1 5.1 5.0 5.1 5.3 5.4 5.4 5.4 5.4 5.3 5.3 5.2 5.1 5.0 4.9 4.8 4.7 4.7 4.7 4.7 4.6 4.6 4.5 4.4 4.4 4.3
6.1 5.9 5.8 5.7 5.6 5.4 5.4 5.4 5.5 5.5 5.5 5.4 5.4 5.2 5.1 5.1 5.0 5.0 5.0 5.1 5.2 5.5 5.6 5.7 5.6 5.5 5.4 5.3 5.2 5.2 5.1 5.0 4.9 4.8 4.7 4.7 4.6 4.5 4.4 4.4 4.4 4.4 4.4 4.4
5.9 5.8 5.7 5.6 5.6 5.5 5.5 5.4 5.5 5.4 5.3 5.2 5.1 4.9 4.9 4.9 4.9 5.0 5.1 5.2 5.4 5.5 5.4 5.4 5.4 5.3 5.3 5.1 5.0 4.9 4.8 4.7 4.6 4.6 4.5 4.4 4.4 4.3 4.3 4.2 4.1 4.1 4.1 4.1
5.8 5.8 5.6 5.5 5.4 5.4 5.3 5.3 5.3 5.2 5.0 4.8 4.7 4.6 4.7 4.9 4.9 5.1 5.2 5.3 5.4 5.3 5.3 5.4 5.4 5.4 5.4 5.4 5.3 5.1 5.0 4.9 4.8 4.7 4.6 4.5 4.5 4.4 4.3 4.2 4.1 4.0 4.0 4.0
5.7 5.7 5.7 5.6 5.6 5.7 5.6 5.5 5.4 5.2 5.0 5.0 5.0 4.9 5.0 5.1 5.2 5.3 5.3 5.3 5.3 5.4 5.5 5.6 5.6 5.6 5.6 5.6 5.5 5.5 5.5 5.4 5.4 5.3 5.2 5.2 5.2 5.2 5.1 5.0 5.0 4.9 4.9 4.8
5.7 5.7 5.6 5.4 5.4 5.1 5.0 4.9 4.9 4.7 4.5 4.5 4.5 4.5 4.7 4.9 5.1 5.1 5.1 5.3 5.6 5.7 5.7 5.8 5.7 5.7 5.7 5.7 5.5 5.5 5.5 5.4 5.5 5.5 5.4 5.4 5.3 5.3 5.3 5.3 5.3 5.3 5.2 5.2
Wind_Speed
6 11 14 16 15 15 13 13 8 10 16 8 7 10 9 9 9 12 15 16 15 14 12 13 13 13 13 13 14 13 10 7 10 10 10 10 11 10 10 10 9 8 7 7
14 12 14 16 16 17 15 15 15 17 11 4 12 11 11 10 10 12 13 14 14 14 15 15 14 12 12 13 14 13 12 12 10 10 10 10 11 11 12 11 9 9 9 8
8 6 12 11 9 15 13 7 9 10 3 8 7 13 12 10 11 11 12 12 13 13 13 12 13 13 12 11 12 15 14 13 13 13 12 10 11 12 13 12 10 10 10 10
4 7 4 1 16 10 11 8 3 10 5 9 11 12 10 11 9 10 10 9 9 9 10 11 12 14 11 11 12 12 13 14 14 14 13 12 13 13 12 11 11 9 10 10
2 3 11 8 7 5 2 6 7 8 3 9 12 10 11 9 9 8 8 7 8 8 9 9 12 12 12 12 12 13 12 12 13 12 13 13 14 13 10 11 11 11 10 11
2 3 3 3 12 11 3 3 7 5 4 0 10 1 2 6 7 7 8 7 8 9 10 13 12 10 11 13 13 13 12 11 11 12 10 14 12 12 11 12 12 10 13 12
5 4 3 12 18 11 3 3 7 8 11 8 5 5 5 4 6 7 8 9 8 9 10 10 10 10 12 11 13 11 12 11 12 12 12 11 12 9 11 11 12 13 14 12
4 1 2 18 6 6 4 7 9 11 10 13 11 10 8 8 7 8 9 11 12 11 11 11 10 9 11 11 9 10 11 11 13 12 11 9 11 10 9 10 9 11 11 11
5 3 4 4 6 8 8 9 9 10 8 9 9 7 8 8 9 9 9 9 9 9 10 11 12 9 9 9 8 9 10 11 11 12 11 10 11 10 6 8 7 6 7 8
2 4 8 9 7 10 9 10 11 10 9 9 9 7 8 7 8 8 9 9 9 10 11 11 11 12 10 10 9 9 10 10 9 11 10 10 8 7 6 6 6 6 7 7
3 6 6 9 9 7 9 10 12 12 11 9 9 8 8 8 8 8 8 9 9 9 9 10 11 11 11 6 7 8 8 8 8 8 10 10 10 8 8 9 8 6 6 6
1 6 4 4 6 8 8 10 8 11 12 10 10 8 6 7 7 8 8 8 8 9 10 10 11 11 11 10 8 7 7 6 6 6 6 7 8 9 21 19 19 17 15 9
2 5 8 7 8 8 9 9 8 8 8 11 11 10 8 6 8 10 8 8 8 8 8 9 9 10 10 9 8 8 6 6 4 5 5 5 5 6 8 12 20 18 16 14
2 5 4 1 4 4 9 12 12 10 10 10 10 10 8 8 8 8 8 8 8 8 9 9 9 9 10 9 7 7 5 7 4 3 4 5 5 5 4 5 5 3 11 12
4 3 5 5 5 8 10 9 9 9 9 10 9 7 7 8 9 8 6 8 8 9 8 8 8 9 8 6 5 5 4 4 3 3 4 5 6 5 4 4 4 3 3 7
4 4 11 11 10 10 9 8 9 8 7 8 8 7 8 8 8 7 7 8 7 7 7 6 7 7 7 6 5 4 4 7 5 3 3 5 5 5 4 4 3 3 3 2
5 7 9 8 9 9 9 8 7 7 7 8 7 6 7 8 8 7 6 5 5 5 5 5 5 6 7 6 5 2 3 3 4 4 3 3 4 4 4 4 3 4 3 2
9 7 8 9 9 9 8 8 7 7 6 6 5 6 6 6 4 2 2 4 5 6 7 6 4 6 7 8 5 3 3 3 4 3 3 4 4 4 4 4 4 5 4 4
10 11 11 11 9 9 8 7 6 6 5 4 6 5 3 4 3 2 2 5 5 4 6 6 9 7 8 9 6 4 3 4 4 3 4 4 4 3 2 3 3 3 3 3
9 9 10 9 8 8 7 4 6 6 3 5 4 5 5 3 2 3 2 2 2 2 3 4 5 5 6 7 7 4 4 3 3 3 3 3 3 3 2 4 4 3 3 3
7 7 8 8 6 5 5 4 5 4 1 4 5 3 2 2 1 1 1 2 4 3 2 4 4 3 4 4 3 3 4 4 4 3 3 2 3 3 3 2 2 3 2 2
4 5 6 6 6 4 2 4 4 4 4 3 3 2 2 2 2 2 2 2 1 1 2 2 2 4 4 4 3 3 3 3 2 3 3 3 3 3 2 2 3 2 2 2
5 4 5 6 5 5 3 3 3 3 3 3 3 3 3 2 3 2 1 2 1 2 0 1 3 4 5 3 3 3 3 3 2 2 2 2 2 2 2 3 2 3 3 2
4 4 4 4 5 4 4 4 5 5 4 4 5 5 2 2 2 0 1 3 3 2 2 2 2 3 3 2 2 2 2 1 1 1 1 1 1 2 1 2 2 2 2 3
5 4 5 5 5 4 4 5 5 4 5 6 5 4 6 3 3 3 3 3 4 4 3 5 4 4 1 2 2 2 2 3 2 1 1 1 1 1 1 2 3 3 3 2
5 4 4 6 4 4 3 3 2 2 2 2 3 3 3 2 2 3 3 4 4 4 3 3 3 2 3 3 3 4 3 3 3 3 3 3 3 3 3 3 2 2 5 8
2 3 1 2 1 2 3 3 3 2 2 2 1 1 3 3 3 3 4 3 4 4 4 4 3 5 5 4 4 3 3 4 5 3 4 3 3 4 4 5 7 8 10 10
Wind_Direction
282 280 282 276 281 276 260 265 258 302 305 1 109 95 71 55 42 25 17 19 19 16 12 10 9 12 11 12 9 12 25 38 75 89 87 87 85 80 74 68 69 69 78 64
297 290 273 270 281 258 259 262 265 279 261 57 49 58 53 36 38 36 23 15 12 16 14 10 5 5 15 13 18 25 29 36 41 66 72 77 85 85 80 70 64 62 54 52
270 292 311 279 246 229 243 287 274 246 122 156 104 63 27 24 34 37 29 18 10 14 21 15 3 359 8 17 27 33 39 36 43 50 58 59 80 83 80 76 67 58 59 63
286 311 255 31 26 47 57 36 13 79 89 96 95 84 56 30 30 34 32 22 15 9 18 19 17 6 7 15 35 40 39 42 44 50 52 56 62 65 72 75 73 67 60 64
226 227 297 305 36 25 317 58 15 56 63 118 127 106 55 36 38 33 28 25 23 12 20 28 29 16 19 22 28 40 38 38 51 61 57 55 58 64 56 68 66 64 60 59
192 271 272 337 334 336 190 111 12 49 2 239 168 129 46 36 44 39 41 27 34 23 34 35 25 26 32 33 31 34 29 36 46 59 66 73 62 61 68 66 67 59 63 54
215 237 281 355 328 315 157 80 58 67 40 61 82 71 104 89 67 55 44 45 35 39 35 31 29 31 39 35 35 31 29 34 45 48 53 66 76 63 72 71 77 70 65 57
207 178 270 0 357 41 37 75 79 77 84 92 89 86 70 57 61 63 55 41 36 41 28 21 32 36 42 40 30 35 43 41 40 42 48 45 64 66 51 74 70 75 75 74
28 72 35 15 39 39 36 76 87 93 84 93 92 66 53 52 42 38 50 52 46 45 39 27 24 36 46 42 38 43 48 46 50 51 50 45 54 59 60 59 65 61 74 75
145 50 52 38 60 47 56 77 77 82 92 88 90 78 64 50 44 47 42 42 38 41 39 30 24 31 49 49 48 49 50 48 51 61 57 52 54 54 53 53 67 65 68 66
87 135 123 57 33 64 72 68 76 74 83 81 78 62 72 64 51 48 52 46 38 36 39 31 26 30 28 47 71 63 60 60 58 59 64 67 61 56 67 60 63 67 57 71
18 336 95 64 61 46 70 86 89 90 87 81 87 77 61 67 65 60 55 49 46 40 39 29 28 25 23 26 40 56 76 68 68 70 67 73 76 73 68 77 78 76 69 64
102 63 95 91 87 75 82 79 74 82 89 93 79 82 66 69 69 71 61 52 46 40 33 30 28 25 11 15 35 49 50 59 82 86 86 83 78 80 85 64 69 69 74 78
41 131 84 341 116 115 102 88 83 86 90 86 91 82 76 70 79 71 63 58 52 41 32 27 27 19 360 0 21 40 48 49 50 61 96 103 93 83 76 78 72 35 24 64
67 66 110 120 135 114 107 103 93 90 90 86 81 80 86 83 72 61 64 66 62 52 35 26 25 7 351 347 16 36 35 42 45 45 54 84 95 89 76 61 60 46 32 41
142 118 107 99 88 116 108 99 100 96 92 87 91 91 87 85 77 63 54 51 64 42 24 16 25 349 345 354 13 31 37 52 51 53 61 81 88 93 87 80 69 59 64 21
141 128 117 108 102 93 93 91 95 100 93 97 98 101 96 90 81 70 55 45 50 37 13 14 345 343 356 3 21 32 68 54 53 57 64 84 96 97 100 99 84 72 68 55
78 69 105 119 120 113 100 91 89 88 84 85 82 83 77 75 88 58 54 39 32 32 18 352 345 3 8 8 4 24 57 53 50 54 65 73 92 121 124 120 109 102 85 69
79 88 93 98 105 107 105 101 91 91 89 91 91 90 90 68 61 28 57 65 42 36 340 349 16 16 9 1 9 24 51 59 54 50 68 69 67 71 95 102 102 104 108 105
89 88 92 91 93 111 110 93 102 97 87 101 98 77 70 33 41 73 45 80 222 244 297 8 18 16 8 358 3 30 36 43 61 63 60 88 95 90 90 103 116 122 120 127
103 101 101 101 96 87 104 117 112 103 91 108 109 135 164 303 1 241 64 35 312 339 72 37 31 5 360 349 22 43 50 55 58 58 71 79 71 69 76 93 101 123 131 129
114 111 115 110 109 102 111 115 107 114 102 90 72 77 32 338 10 20 226 174 272 92 43 24 9 1 360 355 42 51 50 58 72 73 65 66 88 102 103 94 98 109 119 136
130 128 125 129 142 156 141 133 152 143 155 189 190 194 196 225 175 143 169 233 172 168 116 8 344 350 356 24 36 44 53 60 73 83 84 95 141 149 151 153 157 155 138 138
133 134 144 138 136 142 161 206 199 202 210 224 219 215 183 128 353 255 157 156 175 206 225 253 300 328 347 14 36 32 42 113 103 57 34 49 176 171 208 186 172 215 194 177
140 146 138 153 182 211 219 202 204 213 209 227 230 220 225 209 166 215 194 209 206 208 231 248 250 275 276 284 267 228 227 223 224 197 222 223 278 279 278 238 220 201 206 215
165 176 188 199 223 207 169 138 178 204 191 241 247 214 226 241 180 172 204 221 218 215 235 230 230 230 244 246 251 231 230 235 225 226 215 223 225 232 229 223 222 214 218 229
201 218 173 91 42 104 115 136 124 167 165 133 155 285 218 201 232 220 218 223 220 230 232 229 224 227 234 234 241 235 232 241 238 208 218 223 220 228 220 231 231 226 219 210